sat.trackr.live / text

‹ back to catalog

WILDFIRE 8

NORAD 57768 · 2023-133M

PAYLOAD ACTIVE UNKNOWN

§ Identity

Operator
Country
US
Launch date
2023-09-02
Launch site
AFWTR
Launch vehicle
Mass (kg)
RCS (m²)

External: N2YO · Heavens-Above · Gunter

§ Orbital elements

Epoch: 2026-05-25T03:22:20.584992Z

Period
103.94 min
Inclination
80.9966°
Eccentricity
0.0006902
Mean motion
13.85418973 rev/d
Perigee alt
939.7 km
Apogee alt
949.8 km
Semi-major
7,322.9 km
B*
9.4105e-5
RAAN
29.0972°
Arg perigee
74.5909°
Mean anomaly
285.6009°
Rev number
13,784

§ Raw data

WILDFIRE 81 57768U 23133M   26145.14051603  .00000118  00000+0  94105-4 0  99952 57768  80.9966  29.0972 0006902  74.5909 285.6009 13.85418973137845

JSON: /api/v1/satellites/57768 · /tle

For live sub-satellite position, see the globe view (requires WebGL).

§ Visibility from observer

Set your observer location to see the next 7 days of passes ≥ 10°. The values pass through the URL so the page stays shareable.

No JS? Fill the form by hand. The geolocation button needs JavaScript.